Date String (YYYY-MM-DD hh:mm:ss) UTC,Instrument flags,absolute air pressure of the measurement (hPa),sample flow rate (lpm),inlet stack bypass flow (lpm),air temperature of the measurement (°C),ambient temperature measured by the external sensor (°C),aerosol sample conditioner tube jacket temperature (°C),OPC LED temperature (°C),internal box temperature (°C),relative humidity of the measurement (%),span deviation,mass concentration of particles derived from Lorenz-Mie calculation of OPC scattering (μg/m³),mass concentration of particles derived from Lorenz-Mie calculation of OPC scattering (μg/m³),mass concentration of particles derived from Lorenz-Mie calculation of OPC scattering (μg/m³)
DateTimeUTC,F1_M11,P_M11,Q1_M11,Q2_M11,T1_M11,T2_M11,T3_M11,T4_M11,T5_M11,U1_M11,ZSPAN_M11,X0_M11,X2_M11,X1_M11
2024-01-13 21:00:00,SystemResetWarning,0823.7,5.00,000.00,018.9,017.8,000.0,027.4,020.0,3.9,0000.0,0006.81,0002.90,0002.43
2024-01-13 21:01:00,SystemResetWarning,0823.8,5.00,000.00,018.9,017.8,000.0,027.4,020.0,3.9,0000.0,0005.99,0002.90,0002.43
2024-01-13 21:02:00,SystemResetWarning,0823.7,5.00,000.00,018.9,017.8,000.0,027.4,020.2,3.8,0000.0,0005.89,0002.92,0002.44
2024-01-13 21:03:00,SystemResetWarning,0823.7,5.01,000.00,019.0,018.4,000.0,027.3,020.6,3.8,0000.0,0006.40,0002.93,0002.43
2024-01-13 21:04:00,SystemResetWarning,0823.7,5.00,000.00,019.1,019.0,000.0,027.3,020.8,3.7,0000.0,0006.38,0002.94,0002.44
2024-01-13 21:05:00,SystemResetWarning,0823.8,4.99,000.00,019.1,018.9,000.0,027.3,020.4,3.7,0000.0,0006.27,0002.90,0002.44
2024-01-13 21:06:00,SystemResetWarning,0823.8,4.99,000.00,019.1,018.7,000.0,027.3,020.1,3.8,0000.0,0006.09,0002.88,0002.44
2024-01-13 21:07:00,SystemResetWarning,0823.8,5.00,000.00,019.0,018.5,000.0,027.3,020.0,3.8,0000.0,0005.82,0002.89,0002.45
2024-01-13 21:08:00,SystemResetWarning,0823.8,5.01,000.00,019.0,018.3,000.0,027.3,020.0,3.9,0000.0,0005.60,0002.98,0002.47
2024-01-13 21:09:00,SystemResetWarning,0823.7,5.01,000.00,019.0,018.2,000.0,027.3,020.0,3.9,0000.0,0005.10,0002.99,0002.49
2024-01-13 21:10:00,SystemResetWarning,0823.6,5.00,000.00,018.9,018.1,000.0,027.3,020.0,3.9,0000.0,0005.14,0002.97,0002.50
2024-01-13 21:11:00,SystemResetWarning,0823.7,5.00,000.00,018.9,018.1,000.0,027.3,020.0,3.9,0000.0,0006.23,0002.95,0002.50
2024-01-13 21:12:00,SystemResetWarning,0823.8,4.99,000.00,018.9,018.0,000.0,027.3,020.0,3.9,0000.0,0006.14,0002.94,0002.50
2024-01-13 21:13:00,SystemResetWarning,0823.9,5.00,000.00,018.9,018.0,000.0,027.3,020.0,3.9,0000.0,0005.95,0002.90,0002.48
2024-01-13 21:14:00,SystemResetWarning,0823.8,5.01,000.00,018.9,017.9,000.0,027.3,020.0,4.0,0000.0,0005.38,0002.90,0002.48
2024-01-13 21:15:00,SystemResetWarning,0823.8,5.01,000.00,018.9,017.9,000.0,027.3,020.0,4.0,0000.0,0005.49,0002.94,0002.48
2024-01-13 21:16:00,SystemResetWarning,0823.7,5.01,000.00,018.9,017.9,000.0,027.3,020.0,4.0,0000.0,0005.55,0002.97,0002.48
2024-01-13 21:17:00,SystemResetWarning,0823.8,5.00,000.00,018.9,017.9,000.0,027.3,020.0,4.0,0000.0,0005.64,0003.01,0002.49
2024-01-13 21:18:00,SystemResetWarning,0823.8,5.00,000.00,018.9,017.9,000.0,027.3,020.0,4.1,0000.0,0005.72,0003.02,0002.49
2024-01-13 21:19:00,SystemResetWarning,0823.8,5.00,000.00,018.9,018.0,000.0,027.3,020.2,4.1,0000.0,0005.77,0002.96,0002.47
2024-01-13 21:20:00,SystemResetWarning,0823.8,5.01,000.00,019.0,018.6,000.0,027.3,020.7,4.1,0000.0,0006.21,0002.94,0002.47
2024-01-13 21:21:00,SystemResetWarning,0823.9,5.00,000.00,019.1,019.2,000.0,027.3,020.9,4.1,0000.0,0005.94,0002.91,0002.46
2024-01-13 21:22:00,SystemResetWarning,0824.0,4.99,000.00,019.2,019.2,000.0,027.3,020.6,4.1,0000.0,0004.85,0002.96,0002.47
2024-01-13 21:23:00,SystemResetWarning,0824.0,4.99,000.00,019.2,019.0,000.0,027.3,020.4,4.1,0000.0,0004.87,0002.97,0002.47
2024-01-13 21:24:00,SystemResetWarning,0824.0,5.00,000.00,019.1,018.8,000.0,027.3,020.2,4.1,0000.0,0004.94,0002.97,0002.47
2024-01-13 21:25:00,SystemResetWarning,0823.9,5.00,000.00,019.1,018.6,000.0,027.3,020.1,4.0,0000.0,0004.91,0002.95,0002.48
2024-01-13 21:26:00,SystemResetWarning,0823.7,5.00,000.00,019.0,018.5,000.0,027.3,020.0,4.0,0000.0,0004.96,0002.94,0002.49
2024-01-13 21:27:00,SystemResetWarning,0823.7,5.00,000.00,019.0,018.3,000.0,027.3,020.0,4.0,0000.0,0004.96,0002.93,0002.49
2024-01-13 21:28:00,SystemResetWarning,0823.8,5.00,000.00,019.0,018.2,000.0,027.3,020.0,4.0,0000.0,0004.87,0002.88,0002.49
2024-01-13 21:29:00,SystemResetWarning,0823.8,5.01,000.00,018.9,018.1,000.0,027.3,020.0,4.0,0000.0,0004.76,0002.86,0002.49
2024-01-13 21:30:00,SystemResetWarning,0823.8,5.00,000.00,018.9,018.1,000.0,027.3,020.0,4.1,0000.0,0004.44,0002.85,0002.49
2024-01-13 21:31:00,SystemResetWarning,0823.8,5.00,000.00,018.9,018.0,000.0,027.3,020.0,4.0,0000.0,0004.04,0002.89,0002.50
2024-01-13 21:32:00,SystemResetWarning,0823.8,5.01,000.00,018.9,018.0,000.0,027.3,020.0,4.1,0000.0,0004.21,0002.93,0002.52
2024-01-13 21:33:00,SystemResetWarning,0824.0,5.00,000.00,018.9,018.0,000.0,027.3,020.0,4.1,0000.0,0004.40,0002.89,0002.50
2024-01-13 21:34:00,SystemResetWarning,0823.8,5.01,000.00,018.9,018.0,000.0,027.3,020.0,4.1,0000.0,0004.39,0002.89,0002.50
2024-01-13 21:35:00,SystemResetWarning,0823.7,5.00,000.00,018.9,018.0,000.0,027.3,020.0,4.1,0000.0,0004.31,0002.88,0002.50
2024-01-13 21:36:00,SystemResetWarning,0823.7,4.99,000.00,018.9,017.9,000.0,027.3,020.0,4.0,0000.0,0004.26,0002.88,0002.51
2024-01-13 21:37:00,SystemResetWarning,0823.8,5.00,000.00,018.9,017.9,000.0,027.3,020.0,4.1,0000.0,0004.26,0002.85,0002.49
2024-01-13 21:38:00,SystemResetWarning,0823.9,5.00,000.00,018.9,018.1,000.0,027.3,020.4,4.0,0000.0,0004.23,0002.85,0002.50
2024-01-13 21:39:00,SystemResetWarning,0824.0,5.02,000.00,019.0,018.8,000.0,027.3,020.8,4.0,0000.0,0004.26,0002.87,0002.51
2024-01-13 21:40:00,SystemResetWarning,0824.0,5.00,000.00,019.2,019.2,000.0,027.3,020.9,3.9,0000.0,0004.22,0002.85,0002.50
2024-01-13 21:41:00,SystemResetWarning,0824.0,4.99,000.00,019.2,019.1,000.0,027.3,020.6,3.9,0000.0,0004.23,0002.85,0002.50
2024-01-13 21:42:00,SystemResetWarning,0823.8,5.00,000.00,019.2,019.0,000.0,027.4,020.4,3.9,0000.0,0004.20,0002.84,0002.51
2024-01-13 21:43:00,SystemResetWarning,0823.9,5.01,000.00,019.2,018.8,000.0,027.3,020.2,3.9,0000.0,0004.14,0002.82,0002.51
2024-01-13 21:44:00,SystemResetWarning,0824.1,5.00,000.00,019.1,018.6,000.0,027.3,020.0,3.8,0000.0,0003.74,0002.81,0002.52
2024-01-13 21:45:00,SystemResetWarning,0824.0,5.01,000.00,019.1,018.4,000.0,027.3,020.0,3.8,0000.0,0004.12,0002.79,0002.53
2024-01-13 21:46:00,SystemResetWarning,0823.8,4.99,000.00,019.0,018.3,000.0,027.3,020.0,3.8,0000.0,0004.45,0002.81,0002.54
2024-01-13 21:47:00,SystemResetWarning,0824.1,4.99,000.00,019.0,018.2,000.0,027.4,020.0,3.8,0000.0,0004.52,0002.84,0002.55
2024-01-13 21:48:00,SystemResetWarning,0824.1,4.99,000.00,019.0,018.1,000.0,027.4,020.0,3.8,0000.0,0004.44,0002.87,0002.55
2024-01-13 21:49:00,SystemResetWarning,0824.0,5.01,000.00,019.0,018.1,000.0,027.3,020.0,3.8,0000.0,0004.41,0002.86,0002.55
2024-01-13 21:50:00,SystemResetWarning,0823.9,5.01,000.00,018.9,018.0,000.0,027.3,020.0,3.9,0000.0,0004.41,0002.87,0002.56
2024-01-13 21:51:00,SystemResetWarning,0824.0,5.00,000.00,018.9,018.0,000.0,027.4,020.0,3.9,0000.0,0004.42,0002.87,0002.56
2024-01-13 21:52:00,SystemResetWarning,0824.3,4.99,000.00,018.9,017.9,000.0,027.4,020.0,3.9,0000.0,0004.48,0002.90,0002.57
2024-01-13 21:53:00,SystemResetWarning,0824.5,4.99,000.00,018.9,017.9,000.0,027.4,020.0,3.9,0000.0,0004.59,0002.93,0002.57
2024-01-13 21:54:00,SystemResetWarning,0824.3,5.00,000.00,018.9,017.9,000.0,027.3,020.0,3.9,0000.0,0005.66,0002.94,0002.57
2024-01-13 21:55:00,SystemResetWarning,0824.2,5.00,000.00,018.9,017.8,000.0,027.4,020.0,3.9,0000.0,0005.88,0002.99,0002.58
2024-01-13 21:56:00,SystemResetWarning,0824.3,5.01,000.00,018.9,018.0,000.0,027.3,020.3,3.8,0000.0,0005.94,0003.00,0002.58
2024-01-13 21:57:00,SystemResetWarning,0824.3,5.00,000.00,019.0,018.6,000.0,027.4,020.7,3.8,0000.0,0005.36,0002.98,0002.56
2024-01-13 21:58:00,SystemResetWarning,0824.3,4.99,000.00,019.1,019.1,000.0,027.4,020.9,3.9,0000.0,0005.22,0002.98,0002.56
2024-01-13 21:59:00,SystemResetWarning,0824.3,4.99,000.00,019.2,019.1,000.0,027.4,020.5,3.9,0000.0,0005.17,0002.96,0002.55
